[[{"header":{"parameterUnit":"m.s-1","parameterCategory":1,"la1":30.2991,"la2":30.254,"lo1":-89.0895,"lo2":-89.0444,"dy":0.0017,"dx":0.0017,"nx":28,"ny":28,"refTime":"2023-07-27T09:00:00:Z","depth":0,"parameterNumber":2,"parameterNumberName":"U-component_of_WINDS"},"data":[0,0,0,0,0,0,0,0,0,0,0,0,0,0,0,0,0,0,0,0,0,0,0,0,0,0,0,0,0,0,0,0,0,0,0,0,0,0,0,0,0,0,0,0,0,0,0,0,0,0,0,0,0,0,0,0,0,0,1.7271,1.727,0,1.7168,1.7167,1.7166,1.7011,1.7009,1.7006,1.7003,1.6901,1.6901,1.6901,0,0,0,0,0,0,0,0,0,0,0,0,0,1.7337,1.7337,1.7271,1.727,1.7269,1.7168,1.7167,1.7165,1.7012,1.7009,1.7005,1.7002,1.6902,1.6901,1.6901,0,0,0,0,0,0,0,0,0,0,0,0,0,1.7279,1.7337,1.7272,1.718,1.7171,1.7169,1.7167,1.7165,1.7013,1.7008,1.7004,1.7001,1.6902,1.6901,1.6901,1.6981,0,0,1.69,1.69,0,0,0,0,0,0,0,0,1.7283,1.7277,1.7195,1.7186,1.7176,1.7098,1.7152,1.7104,1.7014,1.7073,1.7003,1.6999,1.6971,1.6964,1.6954,1.6977,1.6972,1.69,1.69,1.69,1.69,0,0,0,0,0,0,0,1.7287,1.7281,1.723,1.7194,1.7182,1.7145,1.7132,1.7143,1.7046,1.7067,1.7056,1.7046,1.6965,1.6955,1.6951,1.6971,1.69,1.69,1.69,1.69,1.7051,1.7055,0,0,0,0,0,0,1.7304,1.7285,1.7234,1.7227,1.722,1.7147,1.7132,1.7127,1.7045,1.7029,1.7049,1.7039,1.6957,1.6951,1.6946,1.7032,1.69,1.69,1.69,1.7047,1.7052,1.7056,0,0,0,0,0,0,1.7306,1.7301,1.7238,1.7253,1.7242,1.715,1.7146,1.7128,1.7117,1.7032,1.7014,1.7057,1.6954,1.6947,1.6973,1.7027,1.69,1.6899,1.7042,1.7048,1.7054,1.7208,0,0,0,0,0,0,1.7309,1.7303,1.7332,1.7255,1.7242,1.7266,1.7149,1.7128,1.7117,1.7102,1.7034,1.7019,1.695,1.6974,1.6973,1.7024,1.6899,1.7037,1.7045,1.7052,1.7197,1.7218,1.7236,0,0,0,0,0,1.7312,1.7381,1.7334,1.7329,1.7276,1.727,1.7262,1.7181,1.7122,1.715,1.7095,1.7021,1.7022,1.6978,1.6975,1.7028,1.7033,1.7043,1.7052,1.7189,1.7214,1.7236,0,0,0,0,0,0,1.7468,1.7369,1.7316,1.7362,1.7325,1.7243,1.7277,1.7211,1.7191,1.7178,1.7079,1.7065,1.7103,1.7068,1.7021,1.71,1.7016,1.7025,1.7121,1.7145,1.7164,1.7171,1.6899,0,0,0,0,0,1.7508,1.751,1.7423,1.7472,1.7456,1.7371,1.7365,1.7305,1.7263,1.7247,1.7193,1.7157,1.7148,1.7145,1.7132,1.7192,1.7174,1.7226,1.7246,1.7262,1.7271,1.7298,1.732,1.7087,1.7087,1.7087,0,0,1.759,1.7536,1.7544,1.7502,1.7467,1.7471,1.7358,1.7368,1.7371,1.7249,1.7269,1.7229,1.7181,1.7224,1.724,1.7196,1.7331,1.7274,1.7288,1.7288,1.731,1.7332,1.7351,1.7094,1.7093,1.7092,0,0,1.7742,1.7702,1.7737,1.7703,1.765,1.7592,1.7601,1.7528,1.7496,1.7515,1.7423,1.7425,1.7413,1.7382,1.7364,1.7503,1.7433,1.7502,1.7604,1.7631,1.7649,1.7665,1.7712,1.7731,1.7511,1.7512,1.7512,0,1.7851,1.7853,1.7764,1.7779,1.7763,1.7651,1.7685,1.7657,1.7604,1.7595,1.7547,1.7527,1.7488,1.752,1.7554,1.7544,1.755,1.7509,1.7654,1.7668,1.7682,1.7726,1.7744,1.752,1.7519,1.7518,1.7518,0,1.7989,1.7992,1.8027,1.7976,1.7964,1.7989,1.7904,1.7902,1.7844,1.7791,1.7811,1.7759,1.7733,1.7736,1.768,1.7761,1.7735,1.7672,1.7585,1.7714,1.7753,1.777,1.7533,1.7529,1.7527,1.7525,0,0,1.8237,1.8134,1.8149,1.8123,1.8055,1.8056,1.8076,1.8049,1.8049,1.8016,1.8029,1.8021,1.7961,1.7942,1.7881,1.7905,1.8015,1.7838,1.7835,1.7871,1.8098,1.8145,1.8166,1.7969,1.7972,1.7974,1.8102,0,1.8374,1.84,1.8319,1.8367,1.8367,1.8261,1.8278,1.8238,1.819,1.8184,1.813,1.8125,1.8047,1.8034,1.8054,1.7998,1.8059,1.7988,1.798,1.7981,1.7993,1.8187,1.8237,1.836,1.8117,1.812,1.8121,0,1.8537,1.851,1.8557,1.8484,1.8482,1.8498,1.8466,1.8462,1.8415,1.8377,1.8355,1.8284,1.8297,1.8216,1.8233,1.8186,1.8178,1.815,1.8153,1.8148,1.8058,1.8186,1.8398,1.8416,1.8145,1.8143,1.8142,0,1.871,1.8686,1.8709,1.8691,1.8609,1.8622,1.8589,1.8537,1.8526,1.8498,1.8489,1.8465,1.8451,1.8434,1.8357,1.8305,1.8383,1.8295,1.8351,1.8353,1.8372,1.8371,1.8583,1.837,1.837,1.837,1.8369,0,1.887,1.8902,1.8786,1.8801,1.8833,1.8741,1.8776,1.8732,1.8687,1.8691,1.8599,1.8605,1.8504,1.8499,1.844,1.8462,1.8457,1.8427,1.841,1.8434,1.8438,1.8426,1.8415,1.8374,1.8373,1.8372,1.8371,0,1.9068,1.8992,1.9011,1.893,1.8911,1.8938,1.8869,1.888,1.8825,1.8831,1.8827,1.8742,1.8731,1.8652,1.8625,1.8584,1.8628,1.8596,1.8644,1.8632,1.8693,1.8687,1.8903,1.8926,1.8701,1.8703,1.8705,0,1.9175,1.9197,1.9118,1.9113,1.9084,1.9078,1.9065,1.8975,1.8965,1.8912,1.8929,1.891,1.889,1.8878,1.8813,1.8791,1.8756,1.8833,1.8752,1.8774,1.8754,1.8753,1.8754,1.885,1.8853,1.8856,1.8857,0,1.9371,1.9332,1.9316,1.9287,1.9274,1.9247,1.9214,1.9216,1.9117,1.9111,1.9097,1.9082,1.9052,1.9034,1.9,1.8965,1.8895,1.8884,1.8895,1.8919,1.8945,1.8929,1.8689,1.8879,1.8877,1.8875,1.8874,1.8873,1.9525,1.9538,1.9485,1.947,1.9436,1.9407,1.9412,1.9357,1.9344,1.9312,1.926,1.9254,1.9205,1.9151,1.9122,1.9116,1.9075,1.9093,1.9097,1.9102,1.9113,1.8947,1.911,1.9109,1.9109,1.9108,1.9107,0,1.9714,1.9674,1.9662,1.9618,1.9606,1.954,1.9501,1.9495,1.9491,1.945,1.9432,1.9416,1.9398,1.9331,1.9306,1.9314,1.928,1.931,1.9307,1.93,1.9153,1.9144,1.9337,1.9337,1.9337,1.9337,1.9337,1.9337,1.9811,1.983,1.9785,1.9786,1.9745,1.9737,1.972,1.9693,1.966,1.9646,1.963,1.9586,1.9535,1.9505,1.9485,1.9465,1.946,1.95,1.947,1.9333,1.9311,1.929,1.9281,1.95,1.95,1.9617,1.9619,1.9619]},{"header":{"parameterUnit":"m.s-1","parameterCategory":1,"la1":30.2991,"la2":30.254,"lo1":-89.0895,"lo2":-89.0444,"dy":0.0017,"dx":0.0017,"nx":28,"ny":28,"refTime":"2023-07-27T09:00:00:Z","depth":0,"parameterNumber":3,"parameterNumberName":"V-component_of_WINDS"},"data":[0,0,0,0,0,0,0,0,0,0,0,0,0,0,0,0,0,0,0,0,0,0,0,0,0,0,0,0,0,0,0,0,0,0,0,0,0,0,0,0,0,0,0,0,0,0,0,0,0,0,0,0,0,0,0,0,0,0,0.4697,0.4698,0,0.4766,0.4767,0.4768,0.4802,0.4802,0.4802,0.4802,0.4871,0.4873,0.4875,0,0,0,0,0,0,0,0,0,0,0,0,0,0.4592,0.4594,0.4697,0.4698,0.4699,0.4766,0.4767,0.4768,0.4802,0.4802,0.4802,0.4802,0.487,0.4873,0.4875,0,0,0,0,0,0,0,0,0,0,0,0,0,0.4647,0.4595,0.4697,0.4724,0.4727,0.4766,0.4767,0.4768,0.4802,0.4802,0.4802,0.4802,0.487,0.4872,0.4875,0.4891,0,0,0.4883,0.4885,0,0,0,0,0,0,0,0,0.4644,0.4651,0.4719,0.4722,0.4726,0.4776,0.4755,0.4809,0.4802,0.4774,0.4802,0.4802,0.4839,0.4844,0.4857,0.4895,0.4898,0.4884,0.4885,0.4886,0.4887,0,0,0,0,0,0,0,0.464,0.4648,0.4724,0.472,0.4724,0.4732,0.474,0.4766,0.4805,0.4776,0.4779,0.4787,0.4841,0.4854,0.4859,0.4899,0.4883,0.4886,0.4888,0.4889,0.4952,0.4952,0,0,0,0,0,0,0.4632,0.4645,0.4722,0.4726,0.4684,0.4734,0.4743,0.476,0.4805,0.4812,0.4786,0.4788,0.485,0.4856,0.4862,0.4884,0.4886,0.4889,0.489,0.4952,0.4952,0.4952,0,0,0,0,0,0,0.463,0.4639,0.4719,0.4686,0.4697,0.4736,0.4754,0.4761,0.4775,0.4813,0.482,0.4793,0.485,0.4858,0.4884,0.4886,0.489,0.4893,0.4952,0.4952,0.4952,0.4928,0,0,0,0,0,0,0.4627,0.4638,0.4645,0.4686,0.4699,0.4741,0.4755,0.4762,0.4779,0.4782,0.4821,0.4828,0.4851,0.4879,0.4886,0.489,0.4895,0.4952,0.4952,0.4952,0.4928,0.4927,0.4926,0,0,0,0,0,0.4623,0.4635,0.4645,0.4655,0.4709,0.4741,0.4748,0.4775,0.4779,0.4787,0.4811,0.4826,0.4885,0.4882,0.489,0.4895,0.4952,0.4952,0.4952,0.4929,0.4927,0.4926,0,0,0,0,0,0,0.4593,0.4641,0.4653,0.4679,0.4706,0.4747,0.4757,0.4772,0.4798,0.4799,0.483,0.4839,0.4862,0.4881,0.4877,0.4912,0.492,0.4921,0.4899,0.4898,0.4897,0.4892,0.4897,0,0,0,0,0,0.459,0.4612,0.4653,0.4672,0.4685,0.4718,0.4733,0.4752,0.478,0.4792,0.4818,0.4845,0.4869,0.4885,0.4909,0.4931,0.494,0.4938,0.4937,0.4935,0.4937,0.4949,0.4948,0.4953,0.4953,0.4953,0,0,0.4583,0.4612,0.4624,0.4667,0.469,0.4712,0.4728,0.4751,0.4767,0.4795,0.4821,0.4841,0.4873,0.4897,0.4909,0.4914,0.4937,0.4935,0.4934,0.4936,0.4949,0.4948,0.4948,0.4953,0.4953,0.4953,0,0,0.4581,0.4606,0.4624,0.4647,0.4681,0.4703,0.4707,0.4746,0.4761,0.4788,0.4809,0.4828,0.487,0.4891,0.4908,0.4913,0.4928,0.492,0.4913,0.4924,0.4924,0.4924,0.4925,0.4926,0.4921,0.4921,0.4921,0,0.4568,0.4603,0.4631,0.4653,0.4671,0.4697,0.4716,0.4736,0.4776,0.4787,0.4792,0.4844,0.4867,0.4896,0.4898,0.491,0.4915,0.4916,0.4922,0.4922,0.4922,0.4924,0.4925,0.492,0.492,0.492,0.492,0,0.4585,0.4609,0.4619,0.4658,0.4677,0.4697,0.4727,0.4743,0.4759,0.478,0.4806,0.4835,0.4866,0.4874,0.489,0.4905,0.4906,0.4916,0.4924,0.492,0.4922,0.4923,0.4918,0.4918,0.4919,0.4919,0,0,0.4568,0.4621,0.4625,0.4642,0.4681,0.47,0.472,0.4751,0.4763,0.479,0.4807,0.4841,0.485,0.4869,0.4887,0.4897,0.4899,0.4905,0.4907,0.4903,0.4917,0.4909,0.491,0.4909,0.4909,0.4909,0.4914,0,0.4572,0.4611,0.4636,0.4665,0.4686,0.4711,0.4729,0.4754,0.4774,0.4795,0.4817,0.484,0.4851,0.4862,0.4873,0.4896,0.4902,0.4896,0.4925,0.4925,0.4916,0.4911,0.4903,0.4906,0.4915,0.4915,0.4915,0,0.4582,0.4608,0.4639,0.4675,0.4685,0.4701,0.473,0.475,0.4779,0.4793,0.4813,0.4831,0.4853,0.4858,0.4888,0.4884,0.4897,0.491,0.4911,0.4914,0.492,0.4914,0.4908,0.4908,0.4917,0.4917,0.4917,0,0.4566,0.4609,0.4633,0.4647,0.469,0.47,0.4718,0.4747,0.4763,0.4789,0.4799,0.4826,0.4841,0.4861,0.4886,0.4888,0.4913,0.4921,0.4925,0.4924,0.4929,0.4929,0.4925,0.4937,0.4937,0.4937,0.4937,0,0.4568,0.4586,0.4626,0.4641,0.4661,0.4689,0.4708,0.4728,0.4754,0.4772,0.4794,0.4811,0.4843,0.4863,0.4882,0.4904,0.491,0.4921,0.4926,0.492,0.4918,0.4929,0.4929,0.4938,0.4937,0.4937,0.4937,0,0.4554,0.4582,0.4609,0.4647,0.4657,0.467,0.4703,0.4717,0.4738,0.4761,0.4768,0.48,0.4825,0.4852,0.4885,0.4898,0.4918,0.4926,0.4909,0.4912,0.4914,0.4913,0.4917,0.4918,0.4929,0.4929,0.4929,0,0.4554,0.4568,0.4608,0.4622,0.4639,0.4662,0.4678,0.4706,0.4723,0.4756,0.4766,0.4793,0.4816,0.4854,0.488,0.4905,0.4913,0.4913,0.4917,0.4909,0.4913,0.4912,0.4913,0.4911,0.4911,0.4911,0.4911,0,0.455,0.4563,0.4587,0.4614,0.4634,0.4657,0.4681,0.4691,0.4724,0.474,0.4766,0.4784,0.4818,0.4843,0.4872,0.489,0.4905,0.4909,0.4911,0.4904,0.4894,0.4899,0.4905,0.4909,0.4909,0.4909,0.4909,0.4909,0.4543,0.4557,0.4587,0.4612,0.4633,0.4654,0.467,0.4692,0.4714,0.4745,0.476,0.4785,0.4812,0.4852,0.487,0.4889,0.4894,0.4897,0.4898,0.4898,0.4896,0.489,0.4895,0.4895,0.4895,0.4895,0.4895,0,0.4541,0.4561,0.4584,0.4617,0.4636,0.4649,0.4676,0.4691,0.4713,0.4738,0.476,0.4788,0.4813,0.4841,0.4867,0.4877,0.4885,0.4883,0.4883,0.4887,0.4891,0.4886,0.4877,0.4877,0.4877,0.4877,0.4877,0.4877,0.4542,0.4565,0.4581,0.4615,0.4634,0.466,0.4674,0.4694,0.4713,0.4745,0.4766,0.4784,0.4809,0.4837,0.486,0.4867,0.4876,0.4872,0.4881,0.4885,0.4886,0.4888,0.4884,0.4874,0.4874,0.4876,0.4876,0.4876]}]]